User: anonymous   Login
Location: Columbus
(29.5618°N, 96.6770°W)
Time: 10:53:21
(UTC-05:00)
Language:

Cosmos 2056 Rocket - Orbit

View from above orbital plane
View from above orbital plane
View from above satellite
View from above satellite

Ground track
Ground track

The orbit data is extracted from the following two-line orbital elements,

1 20433U 90004B   15216.37611928  .00000095  00000-0  41515-4 0  9991
2 20433 074.0359 169.5494 0039826 105.8243 009.3658 14.35858953337196
Epoch (UTC): 04 August 2015 09:01:36
Eccentricity: 0.0039826
inclination: 74.0359°
perigee height: 744 km
apogee height: 800 km
right ascension of ascending node: 169.5494°
argument of perigee: 105.8243°
revolutions per day: 14.35858953
mean anomaly at epoch: 9.3658°
orbit number at epoch: 33719

The dashed part of the orbit path shows where the satellite is in the earth's shadow,  

DLR